Content
SEND FEEDBACK

Daily
Averages
Monthly
Summary
United States of America

FOUNTAIN, U.S. VIRGIN ISLANDS


Home > North America > United States > U.S. Virgin Islands
Elevation: 35 feet     Latitude: 17 45N     Longitude: 064 50W

WEATHER
 
SELECT A DAY
Number of Records: 153,266;   Date Range: 7/1/96 - 7/30/14
 
SHARE

PRINT THIS DATA

[ ← Previous Day ]
WEATHER ALMANAC - JANUARY 23, 2013
[ Next Day → ]
[ °C ]   °F
Weather ElementAverageHighLow
Temperature78.5 °F84 °F (1:53 pm)73.9 °F (6:53 am)
Dewpoint69.6 °F71.1 °F (10:53 am)66.9 °F (4:53 pm)
Humidity74.4 %85 % (6:53 am)62 % (4:53 pm)
Barometer30.07 in30.12 in (9:53 am)30.04 in (1:53 am)
Wind Speed11.8 mph18.4 mph (3:53 pm)
Wind Gust24.2 mph (3:53 pm)
Weather ElementAverage
Visibility10 mi
Wind DirectionE (89.2 °)

Weather ElementTotal
Precipitation---
Cooling Degree Days14 (Base 65)
Growing Degree Days29 (Base 50)
Averaged from 25 records on January 23, 2013
WEATHER CONDITIONS BREAKOUT
WIND DIRECTION BREAKOUT
WEATHER BY HOUR - JANUARY 23, 2013
[ °C ]   °F
Local TimeTemperatureDewpointHumidityBarometerVisibilityWind DirectionWind SpeedGust SpeedPrecipitationEventsConditions
1:13 AM77.0 °F69.8 °F78 %30.05 in10.0 miEast (100°)10.4 mphMostly Cloudy
1:53 AM77.0 °F70.0 °F79 %30.04 in10.0 miEast (100°)13.8 mphPartly Cloudy
2:20 AM77.0 °F69.8 °F78 %30.04 in10.0 miESE (110°)13.8 mphMostly Cloudy
2:53 AM77.0 °F70.0 °F79 %30.04 in10.0 miEast (100°)11.5 mphMostly Cloudy
3:19 AM77.0 °F69.8 °F78 %30.04 in10.0 miEast (100°)12.7 mphScattered Clouds
3:53 AM77.0 °F70.0 °F79 %30.04 in10.0 miEast (100°)13.8 mphPartly Cloudy
4:53 AM75.9 °F69.1 °F79 %30.04 in10.0 miEast (100°)9.2 mphClear
5:53 AM75.9 °F70.0 °F82 %30.06 in10.0 miENE (60°)4.6 mphMostly Cloudy
6:53 AM73.9 °F69.1 °F85 %30.08 in10.0 miENE (60°)5.8 mphPartly Cloudy
7:53 AM78.1 °F70.0 °F76 %30.09 in10.0 miEast (100°)12.7 mphPartly Cloudy
8:53 AM81.0 °F69.1 °F67 %30.11 in10.0 miEast (100°)16.1 mphPartly Cloudy
9:53 AM82.0 °F70.0 °F67 %30.12 in10.0 miESE (110°)15.0 mphPartly Cloudy
10:53 AM82.0 °F71.1 °F69 %30.12 in10.0 miESE (110°)11.5 mphPartly Cloudy
11:53 AM82.9 °F71.1 °F67 %30.10 in10.0 miESE (110°)17.3 mphPartly Cloudy
1:53 PM84.0 °F70.0 °F63 %30.06 in10.0 miEast (100°)12.7 mphPartly Cloudy
2:53 PM82.9 °F70.0 °F65 %30.04 in10.0 miEast (100°)16.1 mphClear
3:53 PM82.9 °F69.1 °F63 %30.04 in10.0 miEast (100°)18.4 mph24.2 mphPartly Cloudy
4:53 PM81.0 °F66.9 °F62 %30.04 in10.0 miEast (90°)16.1 mphMostly Cloudy
5:53 PM79.0 °F66.9 °F66 %30.05 in10.0 miEast (90°)16.1 mph20.7 mphScattered Clouds
6:53 PM75.9 °F71.1 °F85 %30.06 in10.0 miEast (80°)10.4 mphScattered Clouds
7:53 PM75.0 °F69.1 °F82 %30.08 in10.0 miNE (50°)6.9 mphScattered Clouds
8:53 PM75.9 °F69.1 °F79 %30.09 in10.0 miNE (50°)5.8 mphScattered Clouds
9:53 PM77.0 °F70.0 °F79 %30.09 in10.0 miENE (60°)5.8 mphOvercast
10:53 PM77.0 °F70.0 °F79 %30.09 in10.0 miENE (70°)8.1 mphOvercast
11:53 PM77.0 °F68.0 °F74 %30.08 in10.0 miEast (80°)10.4 mphMostly Cloudy
Hourly data recorded from TISX, located miles away from Fountain, U.S. Virgin Islands







STORIES FROM OUR PARTNERS